Fort Polk, LA

4:04 PM CDT on May 29, 2017 (GMT -0500)
Fort Polk

Weather History for KAQV - October, 2012

Change the Weather History Date:

Tuesday, October 2, 2012

  Actual Average (KPOE) Record (KPOE)
Temperature  
Mean Temperature 67 °F -  
Max Temperature 80 °F 79 °F 91 °F (2005)
Min Temperature 54 °F 60 °F 51 °F (1999)
Cooling Degree Days 2    
Growing Degree Days 17 (Base 50)    
Moisture  
Dew Point 57 °F    
Average Humidity 77    
Maximum Humidity 97    
Minimum Humidity 42    
Precipitation  
Precipitation 0.00 in - - ()
Sea Level Pressure  
Sea Level Pressure 29.87 in    
Wind  
Wind Speed 0 mph (NNE)    
Max Wind Speed 5 mph    
Max Gust Speed -    
Visibility 9 miles    
Events Rain    
Averages and records for this station are not official NWS values.
T = Trace of Precipitation, MM = Missing Value Source: NWS Daily Summary

Daily Weather History Graph

Daily Weather History Graph

Search for Another Location

Airport or City:

Trip Planner

Search our weather history database for the weather conditions in past years. The results will help you decide how hot, cold, wet, or windy it might be!

Date:

Astronomy

Oct. 02, 2012 Rise Set
Actual Time 7:07 AM CDT 6:56 PM CDT
Civil Twilight 6:43 AM CDT 7:20 PM CDT
Nautical Twilight 6:15 AM CDT 7:48 PM CDT
Astronomical Twilight 5:47 AM CDT 8:16 PM CDT
Moon 8:23 PM CDT (10/2) 9:23 AM CDT (10/2)
Length of Visible Light 12h 36m
Length of Day
11h 48m
Waning Gibbous, 94% of the Moon is Illuminated
Oct 2
Waning Gibbous
Oct 8
Last Quarter
Oct 15
New
Oct 21
First Quarter
Oct 29
Full

Hourly Weather History & Observations

Time (CDT) Temp. Heat Index Dew Point Humidity Pressure Visibility Wind Dir Wind Speed Gust Speed Precip Events Conditions
12:56 AM 57.0 °F - 55.9 °F 96% 29.79 in 9.0 mi Calm Calm - N/A   Mostly Cloudy
1:56 AM 55.9 °F - 54.0 °F 93% 29.79 in 8.0 mi Calm Calm - N/A   Clear
2:56 AM 55.0 °F - 54.0 °F 96% 29.81 in 8.0 mi Calm Calm - N/A   Clear
3:56 AM 55.0 °F - 53.1 °F 93% 29.80 in 7.0 mi Calm Calm - N/A   Clear
4:56 AM 55.0 °F - 54.0 °F 96% 29.81 in 10.0 mi Calm Calm - N/A   Clear
5:56 AM 55.0 °F - 53.1 °F 93% 29.82 in 8.0 mi Calm Calm - N/A   Clear
6:56 AM 54.0 °F - 53.1 °F 97% 29.85 in 9.0 mi Calm Calm - N/A   Clear
7:56 AM 55.9 °F - 54.0 °F 93% 29.87 in 10.0 mi Calm Calm - N/A   Clear
8:56 AM 66.0 °F - 60.1 °F 81% 29.88 in 10.0 mi Calm Calm - N/A   Clear
9:56 AM 70.0 °F - 57.9 °F 65% 29.89 in 10.0 mi Calm Calm - N/A   Clear
10:56 AM 73.0 °F - 57.0 °F 57% 29.90 in 10.0 mi Calm Calm - N/A   Clear
11:56 AM 75.9 °F - 55.0 °F 48% 29.89 in 10.0 mi Variable 3.5 mph - N/A   Clear
12:56 PM 79.0 °F - 55.0 °F 44% 29.88 in 10.0 mi NE 4.6 mph - N/A   Overcast
1:56 PM 75.0 °F - 55.9 °F 51% 29.87 in 10.0 mi Calm Calm - N/A   Clear
2:56 PM 80.1 °F 80.1 °F 55.0 °F 42% 29.85 in 10.0 mi Variable 4.6 mph - N/A   Partly Cloudy
3:56 PM 75.9 °F - 55.9 °F 50% 29.86 in 10.0 mi North 3.5 mph - N/A   Mostly Cloudy
4:56 PM 75.9 °F - 55.9 °F 50% 29.86 in 10.0 mi Calm Calm - N/A   Mostly Cloudy
5:56 PM 72.0 °F - 61.0 °F 68% 29.87 in 10.0 mi Calm Calm - N/A   Scattered Clouds
6:56 PM 69.1 °F - 63.0 °F 81% 29.89 in 10.0 mi Calm Calm - 0.00 in Rain Light Rain
7:56 PM 64.0 °F - 61.0 °F 90% 29.90 in 10.0 mi Calm Calm - 0.00 in   Partly Cloudy
8:56 PM 62.1 °F - 60.1 °F 93% 29.93 in 7.0 mi Calm Calm - N/A   Clear
9:56 PM 60.1 °F - 59.0 °F 96% 29.94 in 8.0 mi Calm Calm - N/A   Clear
10:56 PM 59.0 °F - 57.0 °F 93% 29.95 in 10.0 mi Calm Calm - N/A   Clear
11:56 PM 59.0 °F - 57.0 °F 93% 29.96 in 6.0 mi Calm Calm - N/A   Clear